| time (UTC) | temp C | wind direction | speed KPH | gust KPH | rain 1hr cm | rain 24hr cm | rain mn cm | humidity % | barometer mb |
| 20260502170318 | 12 | 272 | 3.2 | 6.4 | 0.00 | 0.00 | 0.00 | 51 | 1018.1 |
| 20260502164306 | 11 | 37 | 3.2 | 6.4 | 0.00 | 0.00 | 0.00 | 52 | 1018.4 |
| 20260502163801 | 12 | 45 | 8.0 | 11.3 | 0.00 | 0.00 | 0.00 | 50 | 1018.4 |
| 20260502163258 | 12 | 251 | 0.0 | 4.8 | 0.00 | 0.00 | 0.00 | 53 | 1018.6 |
| 20260502162755 | 12 | 34 | 1.6 | 9.7 | 0.00 | 0.00 | 0.00 | 50 | 1018.5 |
| 20260502162252 | 11 | 234 | 1.6 | 6.4 | 0.00 | 0.00 | 0.00 | 51 | 1018.5 |
| 20260502161749 | 12 | 52 | 6.4 | 9.7 | 0.00 | 0.00 | 0.00 | 51 | 1018.5 |
| 20260502161240 | 11 | 246 | 4.8 | 9.7 | 0.00 | 0.00 | 0.00 | 53 | 1018.7 |
| 20260502160738 | 11 | 312 | 1.6 | 3.2 | 0.00 | 0.00 | 0.00 | 50 | 1018.5 |
| 20260502160237 | 11 | 280 | 3.2 | 4.8 | 0.00 | 0.00 | 0.00 | 48 | 1018.7 |
| 20260502152200 | 11 | 272 | 8.0 | 14.5 | 0.00 | 0.00 | 0.00 | 50 | 1018.8 |
| 20260502151658 | 12 | 216 | 3.2 | 6.4 | 0.00 | 0.00 | 0.00 | 50 | 1018.8 |
| 20260502151155 | 13 | 47 | 6.4 | 9.7 | 0.00 | 0.00 | 0.00 | 50 | 1018.8 |
| 20260502150652 | 12 | 216 | 3.2 | 4.8 | 0.00 | 0.00 | 0.00 | 48 | 1018.7 |
| 20260502150148 | 12 | 13 | 0.0 | 3.2 | 0.00 | 0.00 | 0.00 | 51 | 1018.6 |
| 20260502140112 | 10 | 24 | 1.6 | 4.8 | 0.00 | 0.00 | 0.00 | 59 | 1018.9 |
| 20260502130537 | 4 | 214 | 0.0 | 1.6 | 0.00 | 0.00 | 0.00 | 99 | 1018.8 |
| 20260502123520 | 3 | 214 | 0.0 | 0.0 | 0.00 | 0.00 | 0.00 | 99 | 1018.9 |
| 20260502123017 | 2 | 214 | 0.0 | 0.0 | 0.00 | 0.00 | 0.00 | 99 | 1019.0 |
| 20260502122513 | 2 | 214 | 0.0 | 1.6 | 0.00 | 0.00 | 0.00 | 99 | 1019.1 |
| 20260502122011 | 2 | 214 | 0.0 | 3.2 | 0.00 | 0.00 | 0.00 | 99 | 1019.0 |
| 20260502121508 | 2 | 185 | 1.6 | 3.2 | 0.00 | 0.00 | 0.00 | 99 | 1018.9 |
| 20260502121005 | 2 | 182 | 1.6 | 3.2 | 0.00 | 0.00 | 0.00 | 99 | 1018.9 |
| 20260502120501 | 1 | 147 | 0.0 | 1.6 | 0.00 | 0.00 | 0.00 | 99 | 1019.0 |
| 20260502115456 | 1 | 96 | 0.0 | 0.0 | 0.00 | 0.00 | 0.00 | 99 | 1018.9 |
| 20260502114952 | 1 | 96 | 0.0 | 1.6 | 0.00 | 0.00 | 0.00 | 99 | 1019.0 |
| 20260502114449 | 1 | 96 | 0.0 | 0.0 | 0.00 | 0.00 | 0.00 | 99 | 1019.0 |
| 20260502113946 | 1 | 96 | 0.0 | 0.0 | 0.00 | 0.00 | 0.00 | 99 | 1018.9 |
| 20260502113443 | 1 | 103 | 0.0 | 0.0 | 0.00 | 0.00 | 0.00 | 99 | 1018.9 |
| 20260502112942 | 0 | 110 | 1.6 | 1.6 | 0.00 | 0.00 | 0.00 | 99 | 1018.8 |
| 20260502112439 | 0 | 140 | 0.0 | 0.0 | 0.00 | 0.00 | 0.00 | 99 | 1019.0 |
| 20260502111936 | 0 | 140 | 0.0 | 0.0 | 0.00 | 0.00 | 0.00 | 99 | 1019.0 |
| 20260502111433 | 0 | 140 | 0.0 | 0.0 | 0.00 | 0.00 | 0.00 | 99 | 1018.9 |
| 20260502110931 | 0 | 140 | 0.0 | 0.0 | 0.00 | 0.00 | 0.00 | 99 | 1018.7 |
| 20260502110429 | 0 | 140 | 0.0 | 0.0 | 0.00 | 0.00 | 0.00 | 99 | 1018.7 |
| 20260502105925 | 0 | 140 | 0.0 | 0.0 | 0.00 | 0.00 | 0.00 | 99 | 1018.7 |
| 20260502105422 | 0 | 66 | 0.0 | 0.0 | 0.00 | 0.00 | 0.00 | 99 | 1018.5 |
| 20260502104921 | 0 | 66 | 0.0 | 0.0 | 0.00 | 0.00 | 0.00 | 99 | 1018.8 |
| 20260502104418 | 0 | 66 | 0.0 | 0.0 | 0.00 | 0.00 | 0.00 | 99 | 1018.6 |
| 20260502103915 | 0 | 66 | 0.0 | 0.0 | 0.00 | 0.00 | 0.00 | 99 | 1018.7 |
| 20260502103413 | 0 | 66 | 0.0 | 0.0 | 0.00 | 0.00 | 0.00 | 99 | 1018.8 |
| 20260502102910 | 0 | 66 | 0.0 | 0.0 | 0.00 | 0.00 | 0.00 | 99 | 1018.9 |
| 20260502102406 | 0 | 66 | 0.0 | 0.0 | 0.00 | 0.00 | 0.00 | 99 | 1019.0 |
| 20260502101904 | 0 | 66 | 0.0 | 0.0 | 0.00 | 0.00 | 0.00 | 99 | 1019.1 |
| 20260502101402 | 0 | 66 | 0.0 | 0.0 | 0.00 | 0.00 | 0.00 | 99 | 1018.9 |
| 20260502100900 | 0 | 66 | 0.0 | 0.0 | 0.00 | 0.00 | 0.00 | 99 | 1018.8 |
| 20260502100359 | 0 | 66 | 0.0 | 0.0 | 0.00 | 0.00 | 0.00 | 99 | 1018.8 |
| 20260502091332 | 0 | 66 | 0.0 | 0.0 | 0.00 | 0.00 | 0.00 | 99 | 1018.7 |
| 20260502090830 | 0 | 66 | 0.0 | 0.0 | 0.00 | 0.00 | 0.00 | 99 | 1018.8 |
| 20260502090327 | 0 | 66 | 0.0 | 0.0 | 0.00 | 0.00 | 0.00 | 99 | 1019.0 |
| 20260502071222 | 0 | 66 | 0.0 | 0.0 | 0.00 | 0.00 | 0.00 | 99 | 1018.4 |
| 20260502070720 | 0 | 66 | 0.0 | 0.0 | 0.00 | 0.00 | 0.00 | 99 | 1018.5 |
| 20260502070217 | 0 | 66 | 0.0 | 0.0 | 0.00 | 0.00 | 0.00 | 99 | 1018.4 |
| 20260502065716 | 0 | 66 | 0.0 | 0.0 | 0.00 | 0.00 | 0.00 | 99 | 1018.5 |
| 20260502065213 | 0 | 66 | 0.0 | 0.0 | 0.00 | 0.00 | 0.00 | 99 | 1018.7 |
| 20260502064712 | 0 | 66 | 0.0 | 0.0 | 0.00 | 0.00 | 0.00 | 99 | 1018.7 |
| 20260502064209 | 0 | 66 | 0.0 | 1.6 | 0.00 | 0.00 | 0.00 | 99 | 1018.7 |
| 20260502063706 | 0 | 66 | 0.0 | 0.0 | 0.00 | 0.00 | 0.00 | 99 | 1018.9 |
| 20260502063204 | 0 | 66 | 0.0 | 0.0 | 0.00 | 0.00 | 0.00 | 99 | 1018.9 |
| 20260502062701 | 0 | 66 | 0.0 | 0.0 | 0.00 | 0.00 | 0.00 | 99 | 1019.0 |
| 20260502062158 | 0 | 66 | 0.0 | 0.0 | 0.00 | 0.00 | 0.00 | 99 | 1019.1 |
| 20260502061656 | 0 | 66 | 0.0 | 0.0 | 0.00 | 0.00 | 0.00 | 99 | 1019.1 |
| 20260502061154 | 0 | 66 | 0.0 | 0.0 | 0.00 | 0.00 | 0.00 | 99 | 1019.1 |
| 20260502060648 | 0 | 66 | 0.0 | 0.0 | 0.00 | 0.00 | 0.00 | 99 | 1019.2 |
| 20260502060145 | 0 | 67 | 0.0 | 0.0 | 0.00 | 0.00 | 0.00 | 99 | 1019.3 |
| 20260502055642 | 1 | 67 | 0.0 | 0.0 | 0.00 | 0.00 | 0.00 | 99 | 1019.2 |
| 20260502055140 | 1 | 67 | 0.0 | 0.0 | 0.00 | 0.00 | 0.00 | 99 | 1019.1 |
| 20260502054639 | 1 | 67 | 0.0 | 0.0 | 0.00 | 0.00 | 0.00 | 99 | 1019.1 |
| 20260502054136 | 1 | 67 | 0.0 | 0.0 | 0.00 | 0.00 | 0.00 | 99 | 1019.2 |
| 20260502053633 | 1 | 67 | 0.0 | 0.0 | 0.00 | 0.00 | 0.00 | 99 | 1019.2 |
| 20260502053130 | 1 | 67 | 0.0 | 0.0 | 0.00 | 0.00 | 0.00 | 99 | 1019.2 |
| 20260502052629 | 1 | 67 | 0.0 | 0.0 | 0.00 | 0.00 | 0.00 | 99 | 1019.1 |
| 20260502052127 | 1 | 67 | 0.0 | 0.0 | 0.00 | 0.00 | 0.00 | 99 | 1019.0 |
| 20260502051625 | 1 | 67 | 0.0 | 0.0 | 0.00 | 0.00 | 0.00 | 99 | 1019.1 |
| 20260502051123 | 1 | 67 | 0.0 | 0.0 | 0.00 | 0.00 | 0.00 | 99 | 1019.2 |
| 20260502050619 | 1 | 67 | 0.0 | 0.0 | 0.00 | 0.00 | 0.00 | 99 | 1019.1 |
| 20260502050115 | 1 | 67 | 0.0 | 0.0 | 0.00 | 0.00 | 0.00 | 99 | 1019.3 |
| 20260502045612 | 1 | 67 | 0.0 | 0.0 | 0.00 | 0.00 | 0.00 | 99 | 1019.3 |
| 20260502045109 | 1 | 67 | 0.0 | 0.0 | 0.00 | 0.00 | 0.00 | 99 | 1019.1 |
| 20260502044606 | 1 | 67 | 0.0 | 0.0 | 0.00 | 0.00 | 0.00 | 99 | 1019.2 |
| 20260502044103 | 1 | 67 | 0.0 | 0.0 | 0.00 | 0.00 | 0.00 | 99 | 1019.4 |
| 20260502043601 | 1 | 67 | 0.0 | 0.0 | 0.00 | 0.00 | 0.00 | 99 | 1019.2 |
| 20260502043056 | 1 | 67 | 0.0 | 1.6 | 0.00 | 0.00 | 0.00 | 99 | 1019.1 |
| 20260502042551 | 1 | 67 | 0.0 | 0.0 | 0.00 | 0.00 | 0.00 | 99 | 1019.3 |
| 20260502042049 | 1 | 67 | 0.0 | 0.0 | 0.00 | 0.00 | 0.00 | 99 | 1019.1 |
| 20260502041547 | 2 | 67 | 0.0 | 0.0 | 0.00 | 0.00 | 0.00 | 99 | 1019.2 |
| 20260502041043 | 1 | 67 | 0.0 | 0.0 | 0.00 | 0.00 | 0.00 | 98 | 1019.3 |
| 20260502040540 | 1 | 67 | 0.0 | 0.0 | 0.00 | 0.00 | 0.00 | 98 | 1019.2 |
| 20260502040037 | 2 | 67 | 0.0 | 0.0 | 0.00 | 0.05 | 0.05 | 98 | 1019.2 |
| 20260502035533 | 2 | 67 | 0.0 | 0.0 | 0.00 | 0.05 | 0.05 | 98 | 1019.0 |
| 20260502035031 | 2 | 67 | 0.0 | 0.0 | 0.00 | 0.05 | 0.05 | 98 | 1019.0 |
| 20260502034528 | 2 | 67 | 0.0 | 0.0 | 0.00 | 0.05 | 0.05 | 98 | 1019.1 |
| 20260502034027 | 2 | 67 | 0.0 | 0.0 | 0.00 | 0.05 | 0.05 | 97 | 1019.1 |
| 20260502033525 | 2 | 67 | 0.0 | 0.0 | 0.00 | 0.05 | 0.05 | 97 | 1019.0 |
| 20260502033022 | 2 | 67 | 0.0 | 0.0 | 0.00 | 0.05 | 0.05 | 97 | 1019.1 |
| 20260502032517 | 2 | 67 | 0.0 | 0.0 | 0.00 | 0.05 | 0.05 | 97 | 1018.9 |
| 20260502032014 | 2 | 67 | 0.0 | 0.0 | 0.00 | 0.05 | 0.05 | 97 | 1019.1 |
| 20260502031512 | 2 | 67 | 0.0 | 0.0 | 0.00 | 0.05 | 0.05 | 97 | 1019.1 |
| 20260502031010 | 2 | 66 | 0.0 | 0.0 | 0.00 | 0.05 | 0.05 | 97 | 1019.1 |
| 20260502030508 | 3 | 58 | 0.0 | 1.6 | 0.00 | 0.05 | 0.05 | 96 | 1019.3 |
| 20260502030006 | 3 | 57 | 0.0 | 0.0 | 0.00 | 0.05 | 0.05 | 96 | 1019.3 |
| 20260502025503 | 3 | 57 | 0.0 | 0.0 | 0.00 | 0.05 | 0.05 | 96 | 1019.2 |
| 20260502025001 | 3 | 57 | 0.0 | 0.0 | 0.00 | 0.05 | 0.05 | 96 | 1019.2 |
| 20260502024458 | 3 | 57 | 0.0 | 0.0 | 0.00 | 0.05 | 0.05 | 95 | 1019.0 |
| 20260502023956 | 3 | 57 | 0.0 | 0.0 | 0.00 | 0.05 | 0.05 | 95 | 1018.9 |
| 20260502023453 | 3 | 57 | 0.0 | 0.0 | 0.00 | 0.05 | 0.05 | 95 | 1018.9 |
| 20260502022950 | 3 | 57 | 0.0 | 0.0 | 0.00 | 0.05 | 0.05 | 94 | 1018.8 |
| 20260502022447 | 3 | 57 | 0.0 | 0.0 | 0.00 | 0.05 | 0.05 | 94 | 1018.6 |
| 20260502021944 | 3 | 57 | 0.0 | 0.0 | 0.00 | 0.05 | 0.05 | 93 | 1018.5 |
| 20260502021442 | 4 | 57 | 0.0 | 0.0 | 0.00 | 0.05 | 0.05 | 92 | 1018.4 |
| 20260502020938 | 4 | 57 | 0.0 | 1.6 | 0.00 | 0.05 | 0.05 | 92 | 1018.5 |
| 20260502020437 | 4 | 57 | 0.0 | 0.0 | 0.00 | 0.05 | 0.05 | 91 | 1018.4 |
| 20260502015933 | 4 | 56 | 1.6 | 1.6 | 0.00 | 0.05 | 0.05 | 91 | 1018.3 |
| 20260502015431 | 5 | 47 | 0.0 | 0.0 | 0.00 | 0.05 | 0.05 | 90 | 1018.2 |
| 20260502014927 | 5 | 47 | 0.0 | 0.0 | 0.00 | 0.05 | 0.05 | 88 | 1018.0 |
| 20260502014424 | 5 | 47 | 0.0 | 0.0 | 0.00 | 0.05 | 0.05 | 85 | 1018.1 |
| 20260502013921 | 6 | 36 | 0.0 | 0.0 | 0.00 | 0.05 | 0.05 | 84 | 1018.0 |
| 20260502013416 | 6 | 30 | 0.0 | 0.0 | 0.00 | 0.05 | 0.05 | 78 | 1017.9 |
| 20260502012913 | 7 | 26 | 0.0 | 1.6 | 0.00 | 0.05 | 0.05 | 75 | 1018.0 |
| 20260502012411 | 7 | 26 | 0.0 | 0.0 | 0.00 | 0.05 | 0.05 | 74 | 1017.8 |
| 20260502011908 | 7 | 26 | 0.0 | 0.0 | 0.00 | 0.05 | 0.05 | 73 | 1017.7 |
| 20260502011404 | 8 | 19 | 0.0 | 3.2 | 0.00 | 0.05 | 0.05 | 71 | 1017.6 |
| 20260502010902 | 8 | 264 | 0.0 | 1.6 | 0.00 | 0.05 | 0.05 | 71 | 1017.6 |
| 20260502010358 | 8 | 18 | 0.0 | 0.0 | 0.00 | 0.05 | 0.05 | 71 | 1017.5 |
| 20260502005855 | 8 | 24 | 0.0 | 1.6 | 0.00 | 0.05 | 0.05 | 69 | 1017.4 |
| 20260502005352 | 8 | 47 | 0.0 | 4.8 | 0.00 | 0.05 | 0.05 | 69 | 1017.2 |
| 20260502004850 | 8 | 36 | 1.6 | 3.2 | 0.00 | 0.05 | 0.05 | 69 | 1017.1 |
| 20260502004345 | 8 | 50 | 1.6 | 3.2 | 0.00 | 0.05 | 0.05 | 70 | 1017.1 |
| 20260502003843 | 9 | 50 | 1.6 | 4.8 | 0.00 | 0.05 | 0.05 | 69 | 1016.9 |
| 20260502003340 | 9 | 28 | 6.4 | 9.7 | 0.00 | 0.05 | 0.05 | 68 | 1017.0 |
| 20260502002837 | 10 | 338 | 3.2 | 4.8 | 0.00 | 0.05 | 0.05 | 68 | 1017.2 |
| 20260502002334 | 9 | 79 | 3.2 | 12.9 | 0.00 | 0.05 | 0.05 | 68 | 1017.1 |
| 20260502001831 | 10 | 349 | 3.2 | 4.8 | 0.00 | 0.05 | 0.05 | 67 | 1016.9 |
| 20260502001329 | 10 | 315 | 1.6 | 6.4 | 0.00 | 0.05 | 0.05 | 66 | 1016.7 |
| 20260502000826 | 10 | 51 | 4.8 | 12.9 | 0.00 | 0.05 | 0.05 | 65 | 1016.6 |
| 20260502000325 | 11 | 31 | 3.2 | 17.7 | 0.00 | 0.05 | 0.05 | 64 | 1016.5 |
| 20260501235820 | 11 | 40 | 3.2 | 4.8 | 0.00 | 0.05 | 0.05 | 64 | 1016.4 |
| 20260501235316 | 11 | 94 | 4.8 | 11.3 | 0.00 | 0.05 | 0.05 | 67 | 1016.0 |
| 20260501234811 | 11 | 345 | 4.8 | 6.4 | 0.00 | 0.05 | 0.05 | 66 | 1015.9 |
| 20260501234309 | 11 | 347 | 3.2 | 9.7 | 0.00 | 0.05 | 0.05 | 67 | 1015.8 |
| 20260501233807 | 11 | 36 | 6.4 | 9.7 | 0.00 | 0.05 | 0.05 | 65 | 1015.6 |
| 20260501233304 | 11 | 254 | 4.8 | 9.7 | 0.00 | 0.05 | 0.05 | 65 | 1015.4 |
| 20260501232800 | 11 | 106 | 0.0 | 4.8 | 0.00 | 0.05 | 0.05 | 68 | 1015.4 |
| 20260501232257 | 12 | 70 | 1.6 | 11.3 | 0.00 | 0.05 | 0.05 | 66 | 1015.4 |
| 20260501231754 | 12 | 355 | 1.6 | 4.8 | 0.00 | 0.05 | 0.05 | 67 | 1015.3 |
| 20260501231253 | 12 | 305 | 3.2 | 6.4 | 0.00 | 0.05 | 0.05 | 68 | 1015.5 |
| 20260501230750 | 12 | 323 | 4.8 | 6.4 | 0.00 | 0.05 | 0.05 | 68 | 1015.4 |
| 20260501230249 | 12 | 202 | 3.2 | 6.4 | 0.00 | 0.05 | 0.05 | 69 | 1015.4 |
| 20260501225746 | 12 | 245 | 3.2 | 6.4 | 0.00 | 0.05 | 0.05 | 69 | 1015.1 |
| 20260501225244 | 12 | 255 | 0.0 | 6.4 | 0.00 | 0.05 | 0.05 | 69 | 1015.3 |
| 20260501224739 | 12 | 67 | 0.0 | 4.8 | 0.00 | 0.05 | 0.05 | 71 | 1015.2 |
| 20260501224237 | 12 | 247 | 0.0 | 3.2 | 0.00 | 0.05 | 0.05 | 69 | 1015.3 |
| 20260501223733 | 12 | 271 | 0.0 | 12.9 | 0.00 | 0.05 | 0.05 | 69 | 1015.3 |
| 20260501223230 | 12 | 276 | 1.6 | 4.8 | 0.00 | 0.05 | 0.05 | 70 | 1015.2 |
| 20260501222726 | 12 | 312 | 4.8 | 6.4 | 0.00 | 0.05 | 0.05 | 71 | 1015.1 |
| 20260501222223 | 12 | 321 | 0.0 | 3.2 | 0.00 | 0.05 | 0.05 | 72 | 1015.2 |
| 20260501221720 | 13 | 245 | 4.8 | 9.7 | 0.00 | 0.05 | 0.05 | 69 | 1014.9 |
| 20260501221217 | 13 | 301 | 1.6 | 6.4 | 0.00 | 0.05 | 0.05 | 69 | 1014.8 |
| 20260501220715 | 13 | 236 | 0.0 | 4.8 | 0.00 | 0.05 | 0.05 | 70 | 1015.0 |
| 20260501220212 | 12 | 54 | 1.6 | 4.8 | 0.00 | 0.05 | 0.05 | 70 | 1014.9 |
| 20260501215709 | 12 | 260 | 0.0 | 6.4 | 0.00 | 0.05 | 0.05 | 71 | 1015.0 |
| 20260501215204 | 12 | 241 | 0.0 | 1.6 | 0.00 | 0.05 | 0.05 | 72 | 1015.1 |
| 20260501214659 | 12 | 236 | 1.6 | 3.2 | 0.00 | 0.05 | 0.05 | 72 | 1015.0 |
| 20260501214155 | 12 | 297 | 1.6 | 3.2 | 0.00 | 0.05 | 0.05 | 72 | 1015.1 |
| 20260501213652 | 12 | 290 | 0.0 | 3.2 | 0.00 | 0.05 | 0.05 | 72 | 1014.9 |
| 20260501213147 | 12 | 337 | 0.0 | 1.6 | 0.00 | 0.05 | 0.05 | 74 | 1015.1 |
| 20260501212644 | 11 | 301 | 0.0 | 3.2 | 0.00 | 0.05 | 0.05 | 73 | 1014.8 |
| 20260501212141 | 12 | 327 | 0.0 | 3.2 | 0.00 | 0.05 | 0.05 | 72 | 1014.8 |
| 20260501211638 | 11 | 20 | 4.8 | 6.4 | 0.00 | 0.05 | 0.05 | 72 | 1014.7 |
| 20260501211135 | 11 | 42 | 4.8 | 6.4 | 0.00 | 0.05 | 0.05 | 73 | 1014.7 |
| 20260501210632 | 12 | 302 | 3.2 | 3.2 | 0.00 | 0.05 | 0.05 | 71 | 1014.6 |
| 20260501210128 | 12 | 248 | 4.8 | 11.3 | 0.00 | 0.05 | 0.05 | 69 | 1014.9 |
| 20260501205625 | 12 | 30 | 1.6 | 6.4 | 0.00 | 0.05 | 0.05 | 70 | 1014.9 |
| 20260501205123 | 12 | 67 | 4.8 | 6.4 | 0.00 | 0.05 | 0.05 | 72 | 1014.7 |
| 20260501204619 | 12 | 260 | 1.6 | 4.8 | 0.00 | 0.05 | 0.05 | 71 | 1014.7 |
| 20260501204115 | 12 | 342 | 3.2 | 4.8 | 0.00 | 0.05 | 0.05 | 70 | 1014.7 |
| 20260501203612 | 12 | 263 | 3.2 | 11.3 | 0.00 | 0.05 | 0.05 | 69 | 1014.8 |
| 20260501203109 | 12 | 257 | 9.7 | 14.5 | 0.00 | 0.05 | 0.05 | 71 | 1014.8 |
| 20260501202606 | 12 | 299 | 6.4 | 11.3 | 0.00 | 0.05 | 0.05 | 72 | 1015.0 |
| 20260501202103 | 12 | 325 | 4.8 | 11.3 | 0.00 | 0.05 | 0.05 | 72 | 1014.8 |
| 20260501201600 | 12 | 322 | 3.2 | 14.5 | 0.00 | 0.05 | 0.05 | 71 | 1014.9 |
| 20260501201056 | 13 | 322 | 4.8 | 9.7 | 0.00 | 0.05 | 0.05 | 73 | 1014.6 |
| 20260501200553 | 13 | 252 | 3.2 | 12.9 | 0.00 | 0.05 | 0.05 | 73 | 1014.7 |
| 20260501200051 | 13 | 88 | 1.6 | 9.7 | 0.00 | 0.05 | 0.05 | 73 | 1014.7 |
| 20260501195548 | 13 | 325 | 8.0 | 20.9 | 0.00 | 0.05 | 0.05 | 71 | 1014.5 |
| 20260501195043 | 13 | 291 | 6.4 | 11.3 | 0.00 | 0.05 | 0.05 | 73 | 1014.4 |
| 20260501194539 | 14 | 295 | 1.6 | 4.8 | 0.00 | 0.05 | 0.05 | 74 | 1014.5 |
| 20260501194035 | 14 | 244 | 0.0 | 6.4 | 0.00 | 0.05 | 0.05 | 75 | 1014.3 |
| 20260501193533 | 13 | 230 | 1.6 | 3.2 | 0.00 | 0.05 | 0.05 | 78 | 1014.3 |
| 20260501193031 | 13 | 272 | 1.6 | 3.2 | 0.00 | 0.05 | 0.05 | 79 | 1014.4 |
| 20260501192527 | 13 | 26 | 1.6 | 4.8 | 0.00 | 0.05 | 0.05 | 80 | 1014.4 |
| 20260501192026 | 13 | 33 | 4.8 | 4.8 | 0.13 | 0.05 | 0.05 | 80 | 1014.5 |
| 20260501191522 | 13 | 359 | 1.6 | 4.8 | 0.13 | 0.05 | 0.05 | 84 | 1014.1 |
| 20260501191020 | 12 | 350 | 0.0 | 1.6 | 0.00 | 0.03 | 0.03 | 80 | 1014.4 |
| 20260501190515 | 12 | 271 | 0.0 | 1.6 | 0.18 | 0.03 | 0.03 | 79 | 1014.5 |
| 20260501190011 | 12 | 20 | 0.0 | 6.4 | 0.18 | 0.03 | 0.03 | 77 | 1014.4 |
| 20260501185507 | 13 | 235 | 3.2 | 14.5 | 0.00 | 0.00 | 0.00 | 72 | 1014.5 |
| 20260501185003 | 13 | 29 | 1.6 | 12.9 | 0.00 | 0.00 | 0.00 | 68 | 1014.1 |
| 20260501184459 | 15 | 306 | 3.2 | 4.8 | 0.00 | 0.00 | 0.00 | 63 | 1013.8 |
| 20260501183954 | 15 | 346 | 0.0 | 4.8 | 0.00 | 0.00 | 0.00 | 63 | 1013.6 |
| 20260501183452 | 15 | 261 | 1.6 | 4.8 | 0.00 | 0.00 | 0.00 | 58 | 1013.4 |
| 20260501182948 | 16 | 241 | 1.6 | 9.7 | 0.00 | 0.00 | 0.00 | 55 | 1013.6 |
| 20260501182445 | 16 | 263 | 4.8 | 6.4 | 0.00 | 0.00 | 0.00 | 53 | 1013.4 |
| 20260501181941 | 16 | 349 | 1.6 | 11.3 | 0.00 | 0.00 | 0.00 | 50 | 1013.4 |
| 20260501181439 | 17 | 42 | 1.6 | 6.4 | 0.00 | 0.00 | 0.00 | 52 | 1013.3 |
| 20260501180936 | 17 | 259 | 1.6 | 9.7 | 0.00 | 0.00 | 0.00 | 49 | 1013.3 |
| 20260501180433 | 16 | 219 | 8.0 | 12.9 | 0.00 | 0.00 | 0.00 | 50 | 1013.2 |
| 20260501175929 | 16 | 288 | 9.7 | 12.9 | 0.00 | 0.00 | 0.00 | 49 | 1013.3 |
| 20260501175426 | 16 | 227 | 4.8 | 16.1 | 0.00 | 0.00 | 0.00 | 51 | 1013.4 |
| 20260501174923 | 17 | 243 | 4.8 | 14.5 | 0.00 | 0.00 | 0.00 | 49 | 1013.4 |
| 20260501174421 | 17 | 261 | 3.2 | 4.8 | 0.00 | 0.00 | 0.00 | 47 | 1013.4 |
| 20260501173918 | 16 | 285 | 4.8 | 6.4 | 0.00 | 0.00 | 0.00 | 47 | 1013.6 |
| 20260501173416 | 17 | 232 | 9.7 | 16.1 | 0.00 | 0.00 | 0.00 | 46 | 1013.3 |
| 20260501172911 | 16 | 269 | 6.4 | 12.9 | 0.00 | 0.00 | 0.00 | 48 | 1013.4 |
| 20260501172406 | 16 | 186 | 3.2 | 9.7 | 0.00 | 0.00 | 0.00 | 50 | 1013.7 |
| 20260501171902 | 17 | 243 | 4.8 | 6.4 | 0.00 | 0.00 | 0.00 | 46 | 1013.6 |